Time,TemperatureF,DewpointF,PressureIn,WindDirection,WindDirectionDegrees,WindSpeedMPH,WindSpeedGustMPH,Humidity,HourlyPrecipIn,Conditions,Clouds,dailyrainin,SoftwareType,DateUTC
2013-07-22 00:02:00,63.1,60.4,29.60,ESE,119,0.0,2.0,91,0.00,,,0.00,VWS V13.01,2013-07-22 07:02:00,
2013-07-22 00:07:00,63.1,60.4,29.60,ESE,119,0.0,0.0,91,0.00,,,0.00,VWS V13.01,2013-07-22 07:07:00,
2013-07-22 00:12:00,63.2,60.5,29.60,ESE,119,0.0,0.0,91,0.00,,,0.00,VWS V13.01,2013-07-22 07:12:00,
2013-07-22 00:17:00,63.2,60.5,29.60,ESE,119,0.0,0.0,91,0.00,,,0.00,VWS V13.01,2013-07-22 07:17:00,
2013-07-22 00:22:00,63.2,60.5,29.59,ESE,119,0.0,1.0,91,0.00,,,0.00,VWS V13.01,2013-07-22 07:22:00,
2013-07-22 00:27:00,63.2,60.5,29.59,ESE,119,0.0,2.0,91,0.00,,,0.00,VWS V13.01,2013-07-22 07:27:00,
2013-07-22 00:32:00,63.3,60.6,29.59,ESE,119,0.0,2.0,91,0.00,,,0.00,VWS V13.01,2013-07-22 07:32:00,
2013-07-22 00:37:00,63.3,60.6,29.59,ESE,119,0.0,2.0,91,0.00,,,0.00,VWS V13.01,2013-07-22 07:37:00,
2013-07-22 00:42:00,63.4,60.7,29.59,ESE,119,0.0,2.0,91,0.00,,,0.00,VWS V13.01,2013-07-22 07:42:00,
2013-07-22 00:47:00,63.5,60.8,29.59,ESE,119,0.0,2.0,91,0.00,,,0.00,VWS V13.01,2013-07-22 07:47:00,
2013-07-22 00:52:00,63.7,60.7,29.60,ESE,119,0.0,2.0,90,0.00,,,0.00,VWS V13.01,2013-07-22 07:52:00,
2013-07-22 00:57:00,63.7,60.7,29.60,ESE,119,0.0,2.0,90,0.00,,,0.00,VWS V13.01,2013-07-22 07:57:00,
2013-07-22 01:02:00,63.8,60.8,29.60,ESE,119,0.0,2.0,90,0.00,,,0.00,VWS V13.01,2013-07-22 08:02:00,
2013-07-22 01:07:00,64.0,61.0,29.59,ESE,119,0.0,0.0,90,0.00,,,0.00,VWS V13.01,2013-07-22 08:07:00,
2013-07-22 01:12:00,64.0,60.7,29.59,ESE,119,0.0,0.0,89,0.00,,,0.00,VWS V13.01,2013-07-22 08:12:00,
2013-07-22 01:17:00,64.1,60.8,29.60,ESE,119,0.0,0.0,89,0.00,,,0.00,VWS V13.01,2013-07-22 08:17:00,
2013-07-22 01:22:00,64.1,60.8,29.59,ESE,119,0.0,1.0,89,0.00,,,0.00,VWS V13.01,2013-07-22 08:22:00,
2013-07-22 01:27:00,64.1,60.8,29.60,ESE,119,0.0,1.0,89,0.00,,,0.00,VWS V13.01,2013-07-22 08:27:00,
2013-07-22 01:32:00,64.1,60.8,29.59,ESE,119,0.0,1.0,89,0.00,,,0.00,VWS V13.01,2013-07-22 08:32:00,
2013-07-22 01:37:00,64.1,60.8,29.59,ESE,119,0.0,1.0,89,0.00,,,0.00,VWS V13.01,2013-07-22 08:37:00,
2013-07-22 01:42:00,64.0,60.7,29.59,ESE,119,0.0,1.0,89,0.00,,,0.00,VWS V13.01,2013-07-22 08:42:00,
2013-07-22 01:47:00,64.0,61.0,29.59,ESE,119,0.0,1.0,90,0.00,,,0.00,VWS V13.01,2013-07-22 08:47:00,
2013-07-22 01:52:00,64.0,61.0,29.58,ESE,119,2.0,2.0,90,0.00,,,0.00,VWS V13.01,2013-07-22 08:52:00,
2013-07-22 01:57:00,63.9,60.9,29.58,ESE,119,0.0,3.0,90,0.00,,,0.00,VWS V13.01,2013-07-22 08:57:00,
2013-07-22 02:02:00,63.8,60.8,29.58,ESE,119,0.0,3.0,90,0.00,,,0.00,VWS V13.01,2013-07-22 09:02:00,
2013-07-22 02:07:00,63.8,61.1,29.58,ESE,119,0.0,0.0,91,0.00,,,0.00,VWS V13.01,2013-07-22 09:07:00,
2013-07-22 02:12:00,63.8,61.1,29.58,ESE,119,1.0,2.0,91,0.00,,,0.00,VWS V13.01,2013-07-22 09:12:00,
2013-07-22 02:17:00,63.8,61.1,29.58,ESE,119,2.0,4.0,91,0.00,,,0.00,VWS V13.01,2013-07-22 09:17:00,
2013-07-22 02:22:00,63.7,61.0,29.58,ESE,119,0.0,4.0,91,0.00,,,0.00,VWS V13.01,2013-07-22 09:22:00,
2013-07-22 02:27:00,63.7,61.0,29.58,ESE,119,0.0,4.0,91,0.00,,,0.00,VWS V13.01,2013-07-22 09:27:00,
2013-07-22 02:32:00,63.7,61.0,29.57,ESE,119,0.0,4.0,91,0.00,,,0.00,VWS V13.01,2013-07-22 09:32:00,
2013-07-22 02:37:00,63.6,60.9,29.57,ESE,119,0.0,4.0,91,0.00,,,0.00,VWS V13.01,2013-07-22 09:37:00,
2013-07-22 02:42:00,63.6,61.2,29.57,ESE,119,0.0,4.0,92,0.00,,,0.00,VWS V13.01,2013-07-22 09:42:00,
2013-07-22 02:47:00,63.6,61.2,29.57,ESE,119,0.0,4.0,92,0.00,,,0.00,VWS V13.01,2013-07-22 09:47:00,
2013-07-22 02:52:00,63.6,61.2,29.57,ESE,119,1.0,4.0,92,0.00,,,0.00,VWS V13.01,2013-07-22 09:52:00,
2013-07-22 02:57:00,63.6,61.2,29.57,ESE,119,0.0,4.0,92,0.00,,,0.00,VWS V13.01,2013-07-22 09:57:00,
2013-07-22 03:02:00,63.5,61.1,29.57,ESE,119,2.0,4.0,92,0.00,,,0.00,VWS V13.01,2013-07-22 10:02:00,
2013-07-22 03:07:00,63.4,61.0,29.58,ESE,119,4.0,5.0,92,0.00,,,0.00,VWS V13.01,2013-07-22 10:07:00,
2013-07-22 03:12:00,63.2,60.8,29.58,ESE,119,4.0,6.0,92,0.00,,,0.00,VWS V13.01,2013-07-22 10:12:00,
2013-07-22 03:17:00,62.9,60.5,29.58,ESE,119,4.0,7.0,92,0.00,,,0.00,VWS V13.01,2013-07-22 10:17:00,
2013-07-22 03:22:00,62.5,60.5,29.58,ESE,119,3.0,8.0,93,0.00,,,0.00,VWS V13.01,2013-07-22 10:22:00,
2013-07-22 03:27:00,62.3,60.2,29.58,ESE,119,1.0,8.0,93,0.00,,,0.00,VWS V13.01,2013-07-22 10:27:00,
2013-07-22 03:32:00,62.2,60.2,29.58,ESE,119,4.0,8.0,93,0.00,,,0.00,VWS V13.01,2013-07-22 10:32:00,
2013-07-22 03:37:00,62.1,60.1,29.58,ESE,119,0.0,8.0,93,0.00,,,0.00,VWS V13.01,2013-07-22 10:37:00,
2013-07-22 03:42:00,62.1,60.4,29.57,ESE,119,0.0,8.0,94,0.00,,,0.00,VWS V13.01,2013-07-22 10:42:00,
2013-07-22 03:47:00,62.0,60.3,29.58,ESE,119,2.0,8.0,94,0.00,,,0.00,VWS V13.01,2013-07-22 10:47:00,
2013-07-22 03:52:00,61.9,60.2,29.58,ESE,119,4.0,8.0,94,0.00,,,0.00,VWS V13.01,2013-07-22 10:52:00,
2013-07-22 03:57:00,61.9,60.2,29.58,ESE,119,2.0,8.0,94,0.00,,,0.00,VWS V13.01,2013-07-22 10:57:00,
2013-07-22 04:02:00,61.8,60.1,29.58,ESE,119,2.0,8.0,94,0.00,,,0.00,VWS V13.01,2013-07-22 11:02:00,
2013-07-22 04:07:00,61.8,60.1,29.58,ESE,119,2.0,5.0,94,0.00,,,0.00,VWS V13.01,2013-07-22 11:07:00,
2013-07-22 04:12:00,61.7,60.0,29.58,ESE,119,0.0,5.0,94,0.00,,,0.00,VWS V13.01,2013-07-22 11:12:00,
2013-07-22 04:17:00,61.7,60.0,29.58,ESE,119,0.0,5.0,94,0.00,,,0.00,VWS V13.01,2013-07-22 11:17:00,
2013-07-22 04:22:00,61.8,60.1,29.58,ESE,119,2.0,5.0,94,0.00,,,0.00,VWS V13.01,2013-07-22 11:22:00,
2013-07-22 04:27:00,61.8,60.1,29.58,ESE,119,4.0,5.0,94,0.00,,,0.00,VWS V13.01,2013-07-22 11:27:00,
2013-07-22 04:32:00,61.9,60.5,29.58,ESE,119,0.0,5.0,95,0.00,,,0.00,VWS V13.01,2013-07-22 11:32:00,
2013-07-22 04:37:00,62.0,60.6,29.58,ESE,119,0.0,5.0,95,0.00,,,0.00,VWS V13.01,2013-07-22 11:37:00,
2013-07-22 04:42:00,62.0,60.6,29.58,ESE,119,0.0,5.0,95,0.00,,,0.00,VWS V13.01,2013-07-22 11:42:00,
2013-07-22 04:47:00,62.1,60.7,29.58,ESE,119,1.0,5.0,95,0.00,,,0.00,VWS V13.01,2013-07-22 11:47:00,
2013-07-22 04:52:00,62.1,60.7,29.58,ESE,119,0.0,5.0,95,0.00,,,0.00,VWS V13.01,2013-07-22 11:52:00,
2013-07-22 04:57:00,62.1,60.7,29.58,ESE,119,0.0,5.0,95,0.00,,,0.00,VWS V13.01,2013-07-22 11:57:00,
2013-07-22 05:02:00,62.1,60.7,29.58,ESE,119,0.0,5.0,95,0.01,,,0.01,VWS V13.01,2013-07-22 12:02:00,
2013-07-22 05:07:00,62.1,60.7,29.58,ESE,119,0.0,0.0,95,0.01,,,0.01,VWS V13.01,2013-07-22 12:07:00,
2013-07-22 05:12:00,62.1,60.7,29.59,ESE,119,0.0,0.0,95,0.01,,,0.01,VWS V13.01,2013-07-22 12:12:00,
2013-07-22 05:17:00,62.1,60.7,29.59,ESE,119,0.0,3.0,95,0.01,,,0.01,VWS V13.01,2013-07-22 12:17:00,
2013-07-22 05:22:00,62.1,60.7,29.59,ESE,119,0.0,3.0,95,0.01,,,0.01,VWS V13.01,2013-07-22 12:22:00,
2013-07-22 05:27:00,62.1,60.7,29.59,ESE,119,0.0,3.0,95,0.01,,,0.01,VWS V13.01,2013-07-22 12:27:00,
2013-07-22 05:32:00,62.1,60.7,29.59,ESE,119,0.0,3.0,95,0.01,,,0.01,VWS V13.01,2013-07-22 12:32:00,
2013-07-22 05:37:00,62.1,60.7,29.59,ESE,119,0.0,3.0,95,0.01,,,0.01,VWS V13.01,2013-07-22 12:37:00,
2013-07-22 05:42:00,62.0,60.6,29.59,ESE,119,0.0,3.0,95,0.01,,,0.01,VWS V13.01,2013-07-22 12:42:00,
2013-07-22 05:47:00,62.0,60.6,29.59,ESE,119,0.0,3.0,95,0.01,,,0.01,VWS V13.01,2013-07-22 12:47:00,
2013-07-22 05:52:00,62.1,60.7,29.60,ESE,119,0.0,3.0,95,0.01,,,0.01,VWS V13.01,2013-07-22 12:52:00,
2013-07-22 05:57:00,62.1,60.7,29.60,ESE,119,1.0,3.0,95,0.01,,,0.01,VWS V13.01,2013-07-22 12:57:00,
2013-07-22 06:03:00,62.2,60.8,29.60,ESE,119,0.0,3.0,95,0.01,,,0.01,VWS V13.01,2013-07-22 13:03:00,
2013-07-22 06:08:00,62.3,60.8,29.60,ESE,119,0.0,0.0,95,0.00,,,0.01,VWS V13.01,2013-07-22 13:08:00,
2013-07-22 06:13:00,62.3,60.8,29.60,ESE,119,0.0,0.0,95,0.00,,,0.01,VWS V13.01,2013-07-22 13:13:00,
2013-07-22 06:18:00,62.3,60.8,29.60,ESE,119,0.0,0.0,95,0.00,,,0.01,VWS V13.01,2013-07-22 13:18:00,
2013-07-22 06:23:00,62.4,61.0,29.60,ESE,119,0.0,0.0,95,0.00,,,0.01,VWS V13.01,2013-07-22 13:23:00,
2013-07-22 06:28:00,62.4,61.0,29.60,ESE,119,0.0,2.0,95,0.00,,,0.01,VWS V13.01,2013-07-22 13:28:00,
2013-07-22 06:33:00,62.4,61.2,29.60,ESE,119,0.0,2.0,96,0.00,,,0.01,VWS V13.01,2013-07-22 13:33:00,
2013-07-22 06:38:00,62.5,61.3,29.60,ESE,119,0.0,2.0,96,0.00,,,0.01,VWS V13.01,2013-07-22 13:38:00,
2013-07-22 06:43:00,62.8,61.7,29.60,ESE,119,0.0,2.0,96,0.00,,,0.01,VWS V13.01,2013-07-22 13:43:00,
2013-07-22 06:48:00,62.9,61.8,29.60,ESE,119,0.0,2.0,96,0.00,,,0.01,VWS V13.01,2013-07-22 13:48:00,
2013-07-22 06:53:00,63.1,61.9,29.60,ESE,119,1.0,4.0,96,0.00,,,0.01,VWS V13.01,2013-07-22 13:53:00,
2013-07-22 06:58:00,63.4,62.2,29.60,ESE,119,0.0,4.0,96,0.00,,,0.01,VWS V13.01,2013-07-22 13:58:00,
2013-07-22 07:03:00,63.6,62.4,29.61,ESE,119,0.0,4.0,96,0.00,,,0.01,VWS V13.01,2013-07-22 14:03:00,
2013-07-22 07:08:00,63.8,62.6,29.61,ESE,119,0.0,0.0,96,0.00,,,0.01,VWS V13.01,2013-07-22 14:08:00,
2013-07-22 07:13:00,64.0,62.8,29.61,ESE,119,0.0,0.0,96,0.00,,,0.01,VWS V13.01,2013-07-22 14:13:00,
2013-07-22 07:18:00,64.2,63.0,29.61,ESE,119,0.0,1.0,96,0.00,,,0.01,VWS V13.01,2013-07-22 14:18:00,
2013-07-22 07:23:00,64.3,63.1,29.61,ESE,119,4.0,5.0,96,0.00,,,0.01,VWS V13.01,2013-07-22 14:23:00,
2013-07-22 07:28:00,64.4,63.2,29.61,ESE,119,1.0,5.0,96,0.00,,,0.01,VWS V13.01,2013-07-22 14:28:00,
2013-07-22 07:33:00,64.5,63.3,29.61,ESE,119,0.0,5.0,96,0.00,,,0.01,VWS V13.01,2013-07-22 14:33:00,
2013-07-22 07:38:00,64.9,63.7,29.62,ESE,119,1.0,5.0,96,0.00,,,0.01,VWS V13.01,2013-07-22 14:38:00,
2013-07-22 07:43:00,65.1,63.6,29.62,ESE,119,5.0,5.0,95,0.00,,,0.01,VWS V13.01,2013-07-22 14:43:00,
2013-07-22 07:48:00,65.3,63.8,29.62,ESE,119,1.0,6.0,95,0.00,,,0.01,VWS V13.01,2013-07-22 14:48:00,
2013-07-22 07:53:00,65.4,63.9,29.62,ESE,119,5.0,7.0,95,0.00,,,0.01,VWS V13.01,2013-07-22 14:53:00,
2013-07-22 07:58:00,65.5,63.7,29.62,ESE,119,5.0,7.0,94,0.00,,,0.01,VWS V13.01,2013-07-22 14:58:00,
2013-07-22 08:03:00,65.7,63.6,29.62,ESE,119,3.0,7.0,93,0.00,,,0.01,VWS V13.01,2013-07-22 15:03:00,
2013-07-22 08:08:00,66.1,64.0,29.63,ESE,121,7.0,8.0,93,0.00,,,0.01,VWS V13.01,2013-07-22 15:08:00,
2013-07-22 08:13:00,66.2,63.5,29.63,ESE,121,8.0,9.0,91,0.00,,,0.01,VWS V13.01,2013-07-22 15:13:00,
2013-07-22 08:18:00,66.4,63.7,29.63,ESE,123,6.0,9.0,91,0.00,,,0.01,VWS V13.01,2013-07-22 15:18:00,
2013-07-22 08:23:00,66.4,63.4,29.63,SE,134,4.0,9.0,90,0.00,,,0.01,VWS V13.01,2013-07-22 15:23:00,
2013-07-22 08:28:00,66.4,63.4,29.63,ESE,119,5.0,9.0,90,0.00,,,0.01,VWS V13.01,2013-07-22 15:28:00,
2013-07-22 08:33:00,66.5,63.5,29.64,ESE,115,4.0,9.0,90,0.00,,,0.01,VWS V13.01,2013-07-22 15:33:00,
2013-07-22 08:38:00,66.5,63.2,29.64,ESE,115,4.0,9.0,89,0.00,,,0.01,VWS V13.01,2013-07-22 15:38:00,
2013-07-22 08:43:00,66.7,63.4,29.64,ESE,115,4.0,9.0,89,0.00,,,0.01,VWS V13.01,2013-07-22 15:43:00,
2013-07-22 08:48:00,66.8,63.5,29.64,ESE,115,5.0,9.0,89,0.00,,,0.01,VWS V13.01,2013-07-22 15:48:00,
2013-07-22 08:53:00,67.0,63.7,29.64,ESE,117,5.0,9.0,89,0.00,,,0.01,VWS V13.01,2013-07-22 15:53:00,
2013-07-22 08:58:00,67.1,63.4,29.64,SSE,152,5.0,9.0,88,0.00,,,0.01,VWS V13.01,2013-07-22 15:58:00,
2013-07-22 09:03:00,67.1,63.4,29.64,ESE,123,5.0,6.0,88,0.00,,,0.01,VWS V13.01,2013-07-22 16:03:00,
2013-07-22 09:08:00,67.2,63.5,29.64,SE,125,4.0,7.0,88,0.00,,,0.01,VWS V13.01,2013-07-22 16:08:00,
2013-07-22 09:13:00,67.5,63.8,29.64,SE,144,7.0,8.0,88,0.00,,,0.01,VWS V13.01,2013-07-22 16:13:00,
2013-07-22 09:18:00,67.7,64.0,29.64,ESE,111,4.0,8.0,88,0.00,,,0.01,VWS V13.01,2013-07-22 16:18:00,
2013-07-22 09:23:00,67.8,63.8,29.63,ESE,111,5.0,8.0,87,0.00,,,0.01,VWS V13.01,2013-07-22 16:23:00,
2013-07-22 09:29:00,67.9,63.9,29.63,SE,133,5.0,8.0,87,0.00,,,0.01,VWS V13.01,2013-07-22 16:29:00,
2013-07-22 09:34:00,68.0,63.7,29.63,ESE,120,5.0,8.0,86,0.00,,,0.01,VWS V13.01,2013-07-22 16:34:00,
2013-07-22 09:39:00,68.2,63.5,29.64,ESE,119,4.0,8.0,85,0.00,,,0.01,VWS V13.01,2013-07-22 16:39:00,
2013-07-22 09:44:00,68.6,63.6,29.63,ESE,120,2.0,8.0,84,0.00,,,0.01,VWS V13.01,2013-07-22 16:44:00,
2013-07-22 09:49:00,69.0,64.0,29.63,ESE,119,2.0,8.0,84,0.00,,,0.01,VWS V13.01,2013-07-22 16:49:00,
2013-07-22 09:54:00,69.5,64.5,29.63,SE,128,5.0,8.0,84,0.00,,,0.01,VWS V13.01,2013-07-22 16:54:00,
2013-07-22 09:59:00,69.9,64.5,29.64,ESE,117,5.0,8.0,83,0.00,,,0.01,VWS V13.01,2013-07-22 16:59:00,
2013-07-22 10:04:00,70.1,64.4,29.64,ESE,117,1.0,5.0,82,0.00,,,0.01,VWS V13.01,2013-07-22 17:04:00,
2013-07-22 10:09:00,70.5,64.8,29.64,ESE,117,1.0,6.0,82,0.00,,,0.01,VWS V13.01,2013-07-22 17:09:00,
2013-07-22 10:14:00,70.9,64.8,29.64,ESE,117,3.0,6.0,81,0.00,,,0.01,VWS V13.01,2013-07-22 17:14:00,
2013-07-22 10:19:00,71.3,64.8,29.64,ESE,117,5.0,6.0,80,0.00,,,0.01,VWS V13.01,2013-07-22 17:19:00,
2013-07-22 10:24:00,71.7,64.8,29.64,ESE,117,4.0,7.0,79,0.00,,,0.01,VWS V13.01,2013-07-22 17:24:00,
2013-07-22 10:29:00,72.1,65.2,29.64,ESE,119,6.0,8.0,79,0.00,,,0.01,VWS V13.01,2013-07-22 17:29:00,
2013-07-22 10:34:00,72.4,65.2,29.64,SE,136,7.0,8.0,78,0.00,,,0.01,VWS V13.01,2013-07-22 17:34:00,
2013-07-22 10:39:00,72.9,65.3,29.64,ESE,123,4.0,8.0,77,0.00,,,0.01,VWS V13.01,2013-07-22 17:39:00,
2013-07-22 10:44:00,73.3,65.7,29.64,SE,126,7.0,9.0,77,0.00,,,0.01,VWS V13.01,2013-07-22 17:44:00,
2013-07-22 10:49:00,73.4,65.0,29.64,SSE,148,2.0,9.0,75,0.00,,,0.01,VWS V13.01,2013-07-22 17:49:00,
2013-07-22 10:54:00,74.0,65.6,29.64,ESE,112,6.0,9.0,75,0.00,,,0.01,VWS V13.01,2013-07-22 17:54:00,
2013-07-22 10:59:00,73.9,65.1,29.64,SE,129,2.0,9.0,74,0.00,,,0.01,VWS V13.01,2013-07-22 17:59:00,
2013-07-22 11:04:00,74.3,65.9,29.64,ESE,119,5.0,7.0,75,0.00,,,0.01,VWS V13.01,2013-07-22 18:04:00,
2013-07-22 11:09:00,74.9,65.3,29.64,SSE,150,6.0,9.0,72,0.00,,,0.01,VWS V13.01,2013-07-22 18:09:00,
2013-07-22 11:15:00,75.3,65.3,29.64,SE,141,6.0,12.0,71,0.00,,,0.01,VWS V13.01,2013-07-22 18:15:00,
2013-07-22 11:20:00,75.5,65.4,29.64,SSE,156,10.0,12.0,71,0.00,,,0.01,VWS V13.01,2013-07-22 18:20:00,
2013-07-22 11:25:00,75.8,65.3,29.64,SE,141,10.0,12.0,70,0.00,,,0.01,VWS V13.01,2013-07-22 18:25:00,
2013-07-22 11:30:00,76.3,65.0,29.64,SSE,148,7.0,14.0,68,0.00,,,0.01,VWS V13.01,2013-07-22 18:30:00,
2013-07-22 11:36:00,76.5,64.3,29.64,SE,146,6.0,14.0,66,0.00,,,0.01,VWS V13.01,2013-07-22 18:36:00,
2013-07-22 11:41:00,76.4,64.6,29.64,ESE,107,7.0,14.0,67,0.00,,,0.01,VWS V13.01,2013-07-22 18:41:00,
2013-07-22 11:47:00,76.7,64.1,29.64,SSE,149,7.0,14.0,65,0.00,,,0.01,VWS V13.01,2013-07-22 18:47:00,
2013-07-22 11:52:00,77.1,65.3,29.64,SSE,154,8.0,14.0,67,0.00,,,0.01,VWS V13.01,2013-07-22 18:52:00,
2013-07-22 11:57:00,77.5,64.4,29.64,SE,144,6.0,14.0,64,0.00,,,0.01,VWS V13.01,2013-07-22 18:57:00,
2013-07-22 12:02:00,77.4,64.3,29.64,SSE,155,6.0,14.0,64,0.00,,,0.01,VWS V13.01,2013-07-22 19:02:00,
2013-07-22 12:08:00,77.1,64.0,29.64,SSE,155,6.0,13.0,64,0.00,,,0.01,VWS V13.01,2013-07-22 19:08:00,
2013-07-22 12:13:00,77.5,64.8,29.64,SE,144,7.0,13.0,65,0.00,,,0.01,VWS V13.01,2013-07-22 19:13:00,
2013-07-22 12:19:00,77.8,64.7,29.64,SE,146,3.0,13.0,64,0.00,,,0.01,VWS V13.01,2013-07-22 19:19:00,
2013-07-22 12:24:00,78.0,64.4,29.64,SSE,152,9.0,13.0,63,0.00,,,0.01,VWS V13.01,2013-07-22 19:24:00,
2013-07-22 12:29:00,78.2,64.6,29.64,SSE,156,1.0,13.0,63,0.00,,,0.01,VWS V13.01,2013-07-22 19:29:00,
2013-07-22 12:34:00,78.6,64.5,29.64,SE,142,2.0,13.0,62,0.00,,,0.01,VWS V13.01,2013-07-22 19:34:00,
2013-07-22 12:39:00,78.7,64.6,29.64,SSE,168,9.0,13.0,62,0.00,,,0.01,VWS V13.01,2013-07-22 19:39:00,
2013-07-22 12:44:00,78.7,64.6,29.64,SE,146,7.0,13.0,62,0.00,,,0.01,VWS V13.01,2013-07-22 19:44:00,
2013-07-22 12:50:00,78.9,64.3,29.64,SSE,157,7.0,13.0,61,0.00,,,0.01,VWS V13.01,2013-07-22 19:50:00,
2013-07-22 12:55:00,78.7,64.1,29.63,SSE,149,5.0,13.0,61,0.00,,,0.01,VWS V13.01,2013-07-22 19:55:00,
2013-07-22 13:00:00,78.9,63.8,29.63,SSE,152,6.0,13.0,60,0.00,,,0.01,VWS V13.01,2013-07-22 20:00:00,
2013-07-22 13:05:00,79.1,64.5,29.63,SSE,154,8.0,12.0,61,0.00,,,0.01,VWS V13.01,2013-07-22 20:05:00,
2013-07-22 13:10:00,79.2,63.7,29.63,SE,126,11.0,12.0,59,0.00,,,0.01,VWS V13.01,2013-07-22 20:10:00,
2013-07-22 13:15:00,79.3,64.2,29.63,SE,134,11.0,12.0,60,0.00,,,0.01,VWS V13.01,2013-07-22 20:15:00,
2013-07-22 13:17:00,79.2,64.6,29.62,SE,144,9.0,12.0,61,0.00,,,0.01,VWS V13.01,2013-07-22 20:17:00,
2013-07-22 13:18:00,79.2,64.1,29.62,SE,134,8.0,12.0,60,0.00,,,0.01,VWS V13.01,2013-07-22 20:18:00,
2013-07-22 13:23:00,79.2,63.7,29.63,SSE,153,9.0,14.0,59,0.00,,,0.01,VWS V13.01,2013-07-22 20:23:00,
2013-07-22 13:28:00,78.9,63.4,29.63,SSE,167,8.0,14.0,59,0.00,,,0.01,VWS V13.01,2013-07-22 20:28:00,
2013-07-22 13:33:00,78.7,63.7,29.63,SSE,152,9.0,16.0,60,0.00,,,0.01,VWS V13.01,2013-07-22 20:33:00,
2013-07-22 13:38:00,78.7,63.7,29.63,SSE,157,4.0,16.0,60,0.00,,,0.01,VWS V13.01,2013-07-22 20:38:00,
2013-07-22 13:43:00,79.0,64.4,29.63,SSE,161,7.0,16.0,61,0.00,,,0.01,VWS V13.01,2013-07-22 20:43:00,
2013-07-22 13:44:00,79.1,63.6,29.63,SSE,153,9.0,16.0,59,0.00,,,0.01,VWS V13.01,2013-07-22 20:44:00,
2013-07-22 13:49:00,79.2,63.7,29.63,SSE,150,7.0,16.0,59,0.00,,,0.01,VWS V13.01,2013-07-22 20:49:00,
2013-07-22 13:54:00,79.4,63.3,29.63,SSE,153,10.0,16.0,58,0.00,,,0.01,VWS V13.01,2013-07-22 20:54:00,
2013-07-22 13:59:00,79.3,63.3,29.63,SE,145,4.0,16.0,58,0.00,,,0.01,VWS V13.01,2013-07-22 20:59:00,
2013-07-22 14:04:00,78.9,62.9,29.63,SE,139,10.0,11.0,58,0.00,,,0.01,VWS V13.01,2013-07-22 21:04:00,
2013-07-22 14:09:00,78.5,63.0,29.63,SE,132,4.0,11.0,59,0.00,,,0.01,VWS V13.01,2013-07-22 21:09:00,
2013-07-22 14:14:00,78.7,63.2,29.63,SSE,151,5.0,14.0,59,0.00,,,0.01,VWS V13.01,2013-07-22 21:14:00,
2013-07-22 14:19:00,78.7,63.7,29.63,SSE,153,8.0,14.0,60,0.00,,,0.01,VWS V13.01,2013-07-22 21:19:00,
2013-07-22 14:24:00,78.7,63.2,29.63,SSE,165,7.0,14.0,59,0.00,,,0.01,VWS V13.01,2013-07-22 21:24:00,
2013-07-22 14:29:00,79.3,62.8,29.63,SSE,154,6.0,14.0,57,0.00,,,0.01,VWS V13.01,2013-07-22 21:29:00,
2013-07-22 14:34:00,79.1,63.1,29.63,SSE,153,6.0,14.0,58,0.00,,,0.01,VWS V13.01,2013-07-22 21:34:00,
2013-07-22 14:39:00,79.0,62.5,29.63,SSE,159,2.0,14.0,57,0.00,,,0.01,VWS V13.01,2013-07-22 21:39:00,
2013-07-22 14:44:00,78.7,62.7,29.63,SE,140,5.0,14.0,58,0.00,,,0.01,VWS V13.01,2013-07-22 21:44:00,
2013-07-22 14:49:00,78.9,63.4,29.63,SSE,163,7.0,14.0,59,0.00,,,0.01,VWS V13.01,2013-07-22 21:49:00,
2013-07-22 14:54:00,79.1,62.6,29.62,SSE,157,7.0,14.0,57,0.00,,,0.01,VWS V13.01,2013-07-22 21:54:00,
2013-07-22 14:59:00,79.0,62.5,29.62,SSE,150,8.0,14.0,57,0.00,,,0.01,VWS V13.01,2013-07-22 21:59:00,
2013-07-22 15:04:00,78.7,62.7,29.62,SSE,152,5.0,11.0,58,0.00,,,0.01,VWS V13.01,2013-07-22 22:04:00,
2013-07-22 15:09:00,78.4,62.9,29.62,SSE,155,10.0,12.0,59,0.00,,,0.01,VWS V13.01,2013-07-22 22:09:00,
2013-07-22 15:14:00,78.1,62.6,29.62,SSE,150,10.0,13.0,59,0.00,,,0.01,VWS V13.01,2013-07-22 22:14:00,
2013-07-22 15:19:00,78.3,63.3,29.62,SSE,164,6.0,15.0,60,0.00,,,0.01,VWS V13.01,2013-07-22 22:19:00,
2013-07-22 15:24:00,78.0,62.5,29.62,SSE,162,5.0,15.0,59,0.00,,,0.01,VWS V13.01,2013-07-22 22:24:00,
2013-07-22 15:29:00,78.0,63.0,29.62,SSE,155,5.0,15.0,60,0.00,,,0.01,VWS V13.01,2013-07-22 22:29:00,
2013-07-22 15:34:00,77.8,62.8,29.62,SE,144,6.0,15.0,60,0.00,,,0.01,VWS V13.01,2013-07-22 22:34:00,
2013-07-22 15:39:00,77.7,63.2,29.62,SSE,161,6.0,15.0,61,0.00,,,0.01,VWS V13.01,2013-07-22 22:39:00,
2013-07-22 15:44:00,77.7,62.7,29.62,SSE,153,9.0,15.0,60,0.00,,,0.01,VWS V13.01,2013-07-22 22:44:00,
2013-07-22 15:49:00,77.6,62.6,29.61,SSE,152,12.0,15.0,60,0.00,,,0.01,VWS V13.01,2013-07-22 22:49:00,
2013-07-22 15:54:00,77.0,62.5,29.62,SE,144,6.0,15.0,61,0.00,,,0.01,VWS V13.01,2013-07-22 22:54:00,
2013-07-22 15:59:00,76.3,62.3,29.61,SSE,154,9.0,15.0,62,0.00,,,0.01,VWS V13.01,2013-07-22 22:59:00,
2013-07-22 16:04:00,76.2,63.1,29.62,SE,144,3.0,8.0,64,0.00,,,0.01,VWS V13.01,2013-07-22 23:04:00,
2013-07-22 16:09:00,76.6,63.1,29.62,SE,144,9.0,9.0,63,0.00,,,0.01,VWS V13.01,2013-07-22 23:09:00,
2013-07-22 16:14:00,76.9,62.9,29.61,SSE,155,1.0,9.0,62,0.00,,,0.01,VWS V13.01,2013-07-22 23:14:00,
2013-07-22 16:19:00,77.3,62.8,29.61,SSE,160,4.0,9.0,61,0.00,,,0.01,VWS V13.01,2013-07-22 23:19:00,
2013-07-22 16:24:00,76.7,62.7,29.61,SSE,148,2.0,11.0,62,0.00,,,0.01,VWS V13.01,2013-07-22 23:24:00,
2013-07-22 16:29:00,76.2,62.7,29.61,SSE,153,7.0,11.0,63,0.00,,,0.01,VWS V13.01,2013-07-22 23:29:00,
2013-07-22 16:35:00,75.6,62.6,29.61,SSE,157,4.0,11.0,64,0.00,,,0.01,VWS V13.01,2013-07-22 23:35:00,
2013-07-22 16:40:00,75.4,62.4,29.61,SSE,159,4.0,12.0,64,0.00,,,0.01,VWS V13.01,2013-07-22 23:40:00,
2013-07-22 16:45:00,75.9,62.9,29.61,SSE,149,9.0,12.0,64,0.00,,,0.01,VWS V13.01,2013-07-22 23:45:00,
2013-07-22 16:50:00,75.7,62.2,29.61,SSE,159,8.0,12.0,63,0.00,,,0.01,VWS V13.01,2013-07-22 23:50:00,
2013-07-22 16:55:00,75.4,62.4,29.60,SE,139,7.0,12.0,64,0.00,,,0.01,VWS V13.01,2013-07-22 23:55:00,
2013-07-22 17:00:00,75.1,62.1,29.61,SSE,150,9.0,12.0,64,0.00,,,0.01,VWS V13.01,2013-07-23 00:00:00,
2013-07-22 17:05:00,74.8,62.3,29.60,SE,146,6.0,9.0,65,0.00,,,0.01,VWS V13.01,2013-07-23 00:05:00,
2013-07-22 17:10:00,74.7,62.2,29.61,SSE,159,5.0,9.0,65,0.00,,,0.01,VWS V13.01,2013-07-23 00:10:00,
2013-07-22 17:15:00,74.9,62.3,29.61,SSE,153,5.0,9.0,65,0.00,,,0.01,VWS V13.01,2013-07-23 00:15:00,
2013-07-22 17:20:00,75.1,62.1,29.60,SSE,148,7.0,9.0,64,0.00,,,0.01,VWS V13.01,2013-07-23 00:20:00,
2013-07-22 17:25:00,75.1,62.5,29.60,SSE,151,2.0,10.0,65,0.00,,,0.01,VWS V13.01,2013-07-23 00:25:00,
2013-07-22 17:30:00,75.4,62.4,29.60,SSE,149,9.0,10.0,64,0.00,,,0.01,VWS V13.01,2013-07-23 00:30:00,
2013-07-22 17:35:00,75.3,62.3,29.60,SSE,149,5.0,10.0,64,0.00,,,0.01,VWS V13.01,2013-07-23 00:35:00,
2013-07-22 17:40:00,74.5,62.0,29.60,SSE,150,6.0,10.0,65,0.00,,,0.01,VWS V13.01,2013-07-23 00:40:00,
2013-07-22 17:45:00,74.0,61.9,29.60,SSE,152,0.0,10.0,66,0.00,,,0.01,VWS V13.01,2013-07-23 00:45:00,
2013-07-22 17:50:00,74.0,61.9,29.60,SSE,152,5.0,10.0,66,0.00,,,0.01,VWS V13.01,2013-07-23 00:50:00,
2013-07-22 17:55:00,73.9,61.8,29.60,SE,146,6.0,10.0,66,0.00,,,0.01,VWS V13.01,2013-07-23 00:55:00,
2013-07-22 18:00:00,73.5,61.5,29.60,SSE,150,9.0,10.0,66,0.00,,,0.01,VWS V13.01,2013-07-23 01:00:00,
2013-07-22 18:05:00,73.0,61.8,29.60,SSE,153,6.0,10.0,68,0.00,,,0.01,VWS V13.01,2013-07-23 01:05:00,
2013-07-22 18:10:00,72.7,61.1,29.60,SSE,151,5.0,10.0,67,0.00,,,0.01,VWS V13.01,2013-07-23 01:10:00,
2013-07-22 18:15:00,72.4,61.2,29.60,SE,146,0.0,10.0,68,0.00,,,0.01,VWS V13.01,2013-07-23 01:15:00,
2013-07-22 18:20:00,72.1,61.0,29.60,SSE,152,5.0,10.0,68,0.00,,,0.01,VWS V13.01,2013-07-23 01:20:00,
2013-07-22 18:25:00,71.6,60.5,29.61,SSE,150,5.0,10.0,68,0.00,,,0.01,VWS V13.01,2013-07-23 01:25:00,
2013-07-22 18:30:00,71.3,60.6,29.61,SSE,149,8.0,10.0,69,0.00,,,0.01,VWS V13.01,2013-07-23 01:30:00,
2013-07-22 18:35:00,70.8,60.1,29.61,SSE,149,6.0,10.0,69,0.00,,,0.01,VWS V13.01,2013-07-23 01:35:00,
2013-07-22 18:40:00,70.4,60.2,29.61,SE,144,6.0,10.0,70,0.00,,,0.01,VWS V13.01,2013-07-23 01:40:00,
2013-07-22 18:45:00,70.2,60.4,29.61,SE,145,1.0,10.0,71,0.00,,,0.01,VWS V13.01,2013-07-23 01:45:00,
2013-07-22 18:50:00,70.0,59.8,29.61,SE,144,3.0,10.0,70,0.00,,,0.01,VWS V13.01,2013-07-23 01:50:00,
2013-07-22 18:55:00,69.6,59.8,29.62,ESE,114,0.0,10.0,71,0.00,,,0.01,VWS V13.01,2013-07-23 01:55:00,
2013-07-22 19:00:00,69.3,59.9,29.62,ESE,119,5.0,10.0,72,0.00,,,0.01,VWS V13.01,2013-07-23 02:00:00,
2013-07-22 19:05:00,68.9,59.5,29.62,ESE,122,6.0,7.0,72,0.00,,,0.01,VWS V13.01,2013-07-23 02:05:00,
2013-07-22 19:10:00,68.5,59.5,29.62,ESE,122,6.0,7.0,73,0.00,,,0.01,VWS V13.01,2013-07-23 02:10:00,
2013-07-22 19:15:00,68.3,59.7,29.62,ESE,121,3.0,7.0,74,0.00,,,0.01,VWS V13.01,2013-07-23 02:15:00,
2013-07-22 19:20:00,68.1,59.5,29.62,ESE,121,4.0,7.0,74,0.00,,,0.01,VWS V13.01,2013-07-23 02:20:00,
2013-07-22 19:25:00,67.9,59.3,29.62,ESE,121,1.0,7.0,74,0.00,,,0.01,VWS V13.01,2013-07-23 02:25:00,
2013-07-22 19:30:00,67.9,59.7,29.62,ESE,122,1.0,7.0,75,0.00,,,0.01,VWS V13.01,2013-07-23 02:30:00,
2013-07-22 19:35:00,67.9,59.7,29.62,ESE,122,0.0,7.0,75,0.00,,,0.01,VWS V13.01,2013-07-23 02:35:00,
2013-07-22 19:40:00,67.9,59.7,29.62,ESE,122,0.0,7.0,75,0.00,,,0.01,VWS V13.01,2013-07-23 02:40:00,
2013-07-22 19:45:00,67.9,59.7,29.62,ESE,121,0.0,7.0,75,0.00,,,0.01,VWS V13.01,2013-07-23 02:45:00,
2013-07-22 19:50:00,67.9,59.7,29.62,ESE,121,0.0,7.0,75,0.00,,,0.01,VWS V13.01,2013-07-23 02:50:00,
2013-07-22 19:55:00,67.9,59.3,29.62,ESE,122,3.0,7.0,74,0.00,,,0.01,VWS V13.01,2013-07-23 02:55:00,
2013-07-22 20:00:00,67.7,59.5,29.62,ESE,122,2.0,7.0,75,0.00,,,0.01,VWS V13.01,2013-07-23 03:00:00,
2013-07-22 20:05:00,67.6,59.4,29.62,ESE,121,4.0,5.0,75,0.00,,,0.01,VWS V13.01,2013-07-23 03:05:00,
2013-07-22 20:10:00,67.4,59.6,29.62,ESE,122,2.0,5.0,76,0.00,,,0.01,VWS V13.01,2013-07-23 03:10:00,
2013-07-22 20:15:00,67.3,59.5,29.62,ESE,122,0.0,5.0,76,0.00,,,0.01,VWS V13.01,2013-07-23 03:15:00,
2013-07-22 20:20:00,67.1,59.7,29.62,ESE,122,4.0,5.0,77,0.00,,,0.01,VWS V13.01,2013-07-23 03:20:00,
2013-07-22 20:25:00,66.8,59.4,29.62,ESE,122,2.0,5.0,77,0.00,,,0.01,VWS V13.01,2013-07-23 03:25:00,
2013-07-22 20:30:00,66.6,59.5,29.62,ESE,122,1.0,5.0,78,0.00,,,0.01,VWS V13.01,2013-07-23 03:30:00,
2013-07-22 20:35:00,66.4,59.7,29.63,ESE,122,2.0,5.0,79,0.00,,,0.01,VWS V13.01,2013-07-23 03:35:00,
2013-07-22 20:41:00,66.2,59.9,29.63,ESE,122,1.0,5.0,80,0.00,,,0.01,VWS V13.01,2013-07-23 03:41:00,
2013-07-22 20:46:00,66.0,59.7,29.63,ESE,121,2.0,5.0,80,0.00,,,0.01,VWS V13.01,2013-07-23 03:46:00,
2013-07-22 20:51:00,65.9,59.6,29.63,ESE,121,0.0,5.0,80,0.00,,,0.01,VWS V13.01,2013-07-23 03:51:00,
2013-07-22 20:56:00,65.8,59.8,29.63,ESE,122,0.0,5.0,81,0.00,,,0.01,VWS V13.01,2013-07-23 03:56:00,
2013-07-22 21:01:00,65.7,59.7,29.63,ESE,121,0.0,5.0,81,0.00,,,0.01,VWS V13.01,2013-07-23 04:01:00,
2013-07-22 21:06:00,65.5,59.9,29.63,ESE,122,2.0,3.0,82,0.00,,,0.01,VWS V13.01,2013-07-23 04:06:00,
2013-07-22 21:11:00,65.4,59.8,29.63,ESE,121,2.0,5.0,82,0.00,,,0.01,VWS V13.01,2013-07-23 04:11:00,
2013-07-22 21:16:00,65.3,59.7,29.64,ESE,122,0.0,5.0,82,0.00,,,0.01,VWS V13.01,2013-07-23 04:16:00,
2013-07-22 21:21:00,65.2,59.9,29.64,ESE,122,0.0,5.0,83,0.00,,,0.01,VWS V13.01,2013-07-23 04:21:00,
2013-07-22 21:26:00,65.1,59.8,29.63,ESE,121,0.0,5.0,83,0.00,,,0.01,VWS V13.01,2013-07-23 04:26:00,
2013-07-22 21:31:00,65.0,59.7,29.63,ESE,122,0.0,5.0,83,0.00,,,0.01,VWS V13.01,2013-07-23 04:31:00,
2013-07-22 21:36:00,65.0,59.7,29.63,ESE,121,0.0,5.0,83,0.00,,,0.01,VWS V13.01,2013-07-23 04:36:00,
2013-07-22 21:41:00,64.9,59.6,29.63,ESE,122,0.0,5.0,83,0.00,,,0.01,VWS V13.01,2013-07-23 04:41:00,
2013-07-22 21:46:00,64.8,59.5,29.64,ESE,121,0.0,5.0,83,0.00,,,0.01,VWS V13.01,2013-07-23 04:46:00,
2013-07-22 21:51:00,64.8,59.5,29.64,ESE,122,0.0,5.0,83,0.00,,,0.01,VWS V13.01,2013-07-23 04:51:00,
2013-07-22 21:57:00,64.8,59.5,29.64,ESE,122,0.0,5.0,83,0.00,,,0.01,VWS V13.01,2013-07-23 04:57:00,
2013-07-22 22:02:00,64.7,59.4,29.64,ESE,121,0.0,5.0,83,0.00,,,0.01,VWS V13.01,2013-07-23 05:02:00,
2013-07-22 22:07:00,64.6,59.3,29.64,ESE,122,0.0,0.0,83,0.00,,,0.01,VWS V13.01,2013-07-23 05:07:00,
2013-07-22 22:12:00,64.4,59.1,29.64,ESE,122,3.0,3.0,83,0.00,,,0.01,VWS V13.01,2013-07-23 05:12:00,
2013-07-22 22:17:00,64.1,59.2,29.64,ESE,122,1.0,5.0,84,0.00,,,0.01,VWS V13.01,2013-07-23 05:17:00,
2013-07-22 22:22:00,63.9,59.3,29.64,ESE,121,0.0,5.0,85,0.00,,,0.01,VWS V13.01,2013-07-23 05:22:00,
2013-07-22 22:27:00,63.8,59.2,29.64,ESE,122,0.0,5.0,85,0.00,,,0.01,VWS V13.01,2013-07-23 05:27:00,
2013-07-22 22:32:00,63.8,59.2,29.64,ESE,121,0.0,5.0,85,0.00,,,0.01,VWS V13.01,2013-07-23 05:32:00,
2013-07-22 22:37:00,63.7,59.1,29.63,ESE,121,0.0,5.0,85,0.00,,,0.01,VWS V13.01,2013-07-23 05:37:00,
2013-07-22 22:42:00,63.6,59.0,29.63,ESE,122,0.0,5.0,85,0.00,,,0.01,VWS V13.01,2013-07-23 05:42:00,
2013-07-22 22:47:00,63.6,59.0,29.63,ESE,121,0.0,5.0,85,0.00,,,0.01,VWS V13.01,2013-07-23 05:47:00,
2013-07-22 22:52:00,63.6,59.0,29.63,ESE,121,0.0,5.0,85,0.00,,,0.01,VWS V13.01,2013-07-23 05:52:00,
2013-07-22 22:57:00,63.6,59.0,29.63,ESE,121,0.0,5.0,85,0.00,,,0.01,VWS V13.01,2013-07-23 05:57:00,
2013-07-22 23:02:00,63.5,58.9,29.63,ESE,122,2.0,5.0,85,0.00,,,0.01,VWS V13.01,2013-07-23 06:02:00,
2013-07-22 23:07:00,63.4,58.8,29.63,ESE,122,2.0,2.0,85,0.00,,,0.01,VWS V13.01,2013-07-23 06:07:00,
2013-07-22 23:12:00,63.2,59.0,29.63,ESE,121,5.0,6.0,86,0.00,,,0.01,VWS V13.01,2013-07-23 06:12:00,
2013-07-22 23:17:00,63.1,59.2,29.64,ESE,122,4.0,6.0,87,0.00,,,0.01,VWS V13.01,2013-07-23 06:17:00,
2013-07-22 23:22:00,63.1,59.2,29.64,ESE,121,3.0,6.0,87,0.00,,,0.01,VWS V13.01,2013-07-23 06:22:00,
2013-07-22 23:27:00,63.1,59.2,29.64,ESE,121,1.0,6.0,87,0.00,,,0.01,VWS V13.01,2013-07-23 06:27:00,
2013-07-22 23:32:00,63.1,59.2,29.64,ESE,121,0.0,6.0,87,0.00,,,0.01,VWS V13.01,2013-07-23 06:32:00,
2013-07-22 23:37:00,63.1,59.2,29.64,ESE,122,0.0,6.0,87,0.00,,,0.01,VWS V13.01,2013-07-23 06:37:00,
2013-07-22 23:42:00,63.0,59.1,29.64,ESE,121,0.0,6.0,87,0.00,,,0.01,VWS V13.01,2013-07-23 06:42:00,
2013-07-22 23:47:00,62.9,59.0,29.65,ESE,122,0.0,6.0,87,0.00,,,0.01,VWS V13.01,2013-07-23 06:47:00,
2013-07-22 23:52:00,62.9,59.0,29.65,ESE,122,1.0,6.0,87,0.00,,,0.01,VWS V13.01,2013-07-23 06:52:00,
2013-07-22 23:57:00,62.8,59.2,29.64,ESE,121,4.0,6.0,88,0.00,,,0.01,VWS V13.01,2013-07-23 06:57:00,